| time (UTC) | temp C | wind direction | speed KPH | gust KPH | rain 1hr cm | rain 24hr cm | rain mn cm | humidity % | barometer mb |
| 20260504081515 | 21 | 0 | 0.0 | 0.0 | 0.00 | 0.00 | 0.00 | 52 | |
| 20260504080455 | 21 | 250 | 0.0 | 1.6 | 0.00 | 0.00 | 0.00 | 53 | |
| 20260504050155 | 13 | 253 | 4.8 | 8.0 | 0.00 | 0.00 | 0.00 | 67 | |
| 20260504045155 | 13 | 254 | 4.8 | 6.4 | 0.00 | 0.00 | 0.00 | 68 | |
| 20260504044155 | 13 | 272 | 6.4 | 6.4 | 0.00 | 0.00 | 0.00 | 70 | |
| 20260504043135 | 13 | 244 | 4.8 | 4.8 | 0.00 | 0.00 | 0.00 | 68 | |
| 20260504042135 | 12 | 253 | 3.2 | 3.2 | 0.00 | 0.00 | 0.00 | 70 | |
| 20260504041115 | 12 | 0 | 0.0 | 0.0 | 0.00 | 0.00 | 0.00 | 72 | |
| 20260504040115 | 11 | 0 | 0.0 | 0.0 | 0.00 | 0.00 | 0.00 | 74 | |
| 20260504035055 | 11 | 276 | 0.0 | 0.0 | 0.00 | 0.00 | 0.00 | 71 | |
| 20260504034054 | 12 | 245 | 1.6 | 3.2 | 0.00 | 0.00 | 0.00 | 68 | |
| 20260504033034 | 12 | 253 | 1.6 | 3.2 | 0.00 | 0.00 | 0.00 | 69 | |
| 20260504032034 | 11 | 232 | 1.6 | 3.2 | 0.00 | 0.00 | 0.00 | 69 | |
| 20260504031034 | 11 | 240 | 1.6 | 3.2 | 0.00 | 0.00 | 0.00 | 69 | |
| 20260504030034 | 12 | 265 | 1.6 | 1.6 | 0.00 | 0.00 | 0.00 | 66 | |
| 20260504025034 | 12 | 250 | 3.2 | 3.2 | 0.00 | 0.00 | 0.00 | 66 | |
| 20260504024034 | 12 | 261 | 0.0 | 1.6 | 0.00 | 0.00 | 0.00 | 65 | |
| 20260504023014 | 12 | 252 | 1.6 | 1.6 | 0.00 | 0.00 | 0.00 | 64 | |
| 20260504022016 | 12 | 259 | 0.0 | 3.2 | 0.00 | 0.00 | 0.00 | 63 | |
| 20260504021014 | 12 | 262 | 0.0 | 1.6 | 0.00 | 0.00 | 0.00 | 64 | |
| 20260504015954 | 12 | 253 | 0.0 | 1.6 | 0.00 | 0.00 | 0.00 | 63 | |
| 20260504014954 | 12 | 259 | 0.0 | 1.6 | 0.00 | 0.00 | 0.00 | 62 | |
| 20260504013934 | 13 | 0 | 0.0 | 0.0 | 0.00 | 0.00 | 0.00 | 61 | |
| 20260504012934 | 13 | 267 | 0.0 | 1.6 | 0.00 | 0.00 | 0.00 | 60 | |
| 20260504011934 | 13 | 266 | 0.0 | 0.0 | 0.00 | 0.00 | 0.00 | 60 | |
| 20260504010934 | 13 | 252 | 0.0 | 0.0 | 0.00 | 0.00 | 0.00 | 58 | |
| 20260504005934 | 14 | 254 | 0.0 | 1.6 | 0.00 | 0.00 | 0.00 | 57 | |
| 20260504004934 | 15 | 256 | 1.6 | 3.2 | 0.00 | 0.00 | 0.00 | 55 | |
| 20260504003914 | 15 | 271 | 3.2 | 4.8 | 0.00 | 0.00 | 0.00 | 54 | |
| 20260504002914 | 15 | 250 | 3.2 | 3.2 | 0.00 | 0.00 | 0.00 | 54 | |
| 20260504001854 | 15 | 243 | 1.6 | 3.2 | 0.00 | 0.00 | 0.00 | 54 | |
| 20260504000854 | 15 | 236 | 1.6 | 3.2 | 0.00 | 0.00 | 0.00 | 54 | |
| 20260503235834 | 14 | 263 | 1.6 | 1.6 | 0.00 | 0.00 | 0.00 | 54 | |
| 20260503234834 | 14 | 262 | 1.6 | 1.6 | 0.00 | 0.00 | 0.00 | 54 | |
| 20260503233814 | 14 | 261 | 1.6 | 3.2 | 0.00 | 0.00 | 0.00 | 53 | |
| 20260503232814 | 14 | 0 | 0.0 | 0.0 | 0.00 | 0.00 | 0.00 | 52 | |
| 20260503231814 | 14 | 0 | 0.0 | 0.0 | 0.00 | 0.00 | 0.00 | 55 | |
| 20260503231514 | 15 | 0 | 0.0 | 0.0 | 0.00 | 0.00 | 0.00 | 53 | |
| 20260503230514 | 15 | 244 | 1.6 | 1.6 | 0.00 | 0.00 | 0.00 | 51 | |
| 20260503225514 | 14 | 252 | 0.0 | 0.0 | 0.00 | 0.00 | 0.00 | 52 | |
| 20260503224514 | 14 | 0 | 0.0 | 0.0 | 0.00 | 0.00 | 0.00 | 55 | |
| 20260503223454 | 14 | 260 | 1.6 | 0.0 | 0.00 | 0.00 | 0.00 | 54 | |
| 20260503222454 | 14 | 0 | 0.0 | 0.0 | 0.00 | 0.00 | 0.00 | 56 | |
| 20260503221454 | 13 | 0 | 0.0 | 0.0 | 0.00 | 0.00 | 0.00 | 57 | |
| 20260503220454 | 13 | 0 | 0.0 | 0.0 | 0.00 | 0.00 | 0.00 | 56 | |
| 20260503215454 | 14 | 0 | 0.0 | 0.0 | 0.00 | 0.00 | 0.00 | 55 | |
| 20260503214454 | 15 | 0 | 0.0 | 0.0 | 0.00 | 0.00 | 0.00 | 55 | |
| 20260503213434 | 14 | 241 | 1.6 | 1.6 | 0.00 | 0.00 | 0.00 | 53 | |
| 20260503212434 | 15 | 0 | 0.0 | 0.0 | 0.00 | 0.00 | 0.00 | 55 | |
| 20260503211434 | 15 | 0 | 0.0 | 0.0 | 0.00 | 0.00 | 0.00 | 53 | |
| 20260503210414 | 15 | 0 | 0.0 | 0.0 | 0.00 | 0.00 | 0.00 | 52 | |
| 20260503205414 | 16 | 0 | 0.0 | 0.0 | 0.00 | 0.00 | 0.00 | 51 | |
| 20260503204354 | 16 | 0 | 0.0 | 0.0 | 0.00 | 0.00 | 0.00 | 47 | |
| 20260503203354 | 16 | 0 | 0.0 | 0.0 | 0.00 | 0.00 | 0.00 | 48 | |
| 20260503202334 | 16 | 0 | 0.0 | 0.0 | 0.00 | 0.00 | 0.00 | 47 | |
| 20260503201334 | 17 | 0 | 0.0 | 0.0 | 0.00 | 0.00 | 0.00 | 46 | |
| 20260503200334 | 17 | 0 | 0.0 | 0.0 | 0.00 | 0.00 | 0.00 | 45 | |
| 20260503195334 | 17 | 0 | 0.0 | 0.0 | 0.00 | 0.00 | 0.00 | 45 | |
| 20260503194334 | 18 | 0 | 0.0 | 0.0 | 0.00 | 0.00 | 0.00 | 44 | |
| 20260503193314 | 18 | 249 | 1.6 | 1.6 | 0.00 | 0.00 | 0.00 | 42 | |
| 20260503192314 | 18 | 263 | 0.0 | 0.0 | 0.00 | 0.00 | 0.00 | 44 | |
| 20260503191314 | 18 | 263 | 1.6 | 1.6 | 0.00 | 0.00 | 0.00 | 43 | |
| 20260503190314 | 18 | 0 | 0.0 | 0.0 | 0.00 | 0.00 | 0.00 | 42 | |
| 20260503185254 | 20 | 263 | 0.0 | 1.6 | 0.00 | 0.00 | 0.00 | 42 | |
| 20260503184234 | 20 | 0 | 0.0 | 0.0 | 0.00 | 0.00 | 0.00 | 41 | |
| 20260503183234 | 20 | 254 | 0.0 | 1.6 | 0.00 | 0.00 | 0.00 | 40 | |
| 20260503182214 | 20 | 243 | 1.6 | 1.6 | 0.00 | 0.00 | 0.00 | 39 | |
| 20260503181214 | 21 | 247 | 3.2 | 3.2 | 0.00 | 0.00 | 0.00 | 38 | |
| 20260503180214 | 22 | 251 | 4.8 | 6.4 | 0.00 | 0.00 | 0.00 | 37 | |
| 20260503175214 | 22 | 221 | 3.2 | 4.8 | 0.00 | 0.00 | 0.00 | 37 | |
| 20260503174214 | 22 | 233 | 3.2 | 3.2 | 0.00 | 0.00 | 0.00 | 37 | |
| 20260503173154 | 23 | 259 | 1.6 | 3.2 | 0.00 | 0.00 | 0.00 | 36 | |
| 20260503172154 | 23 | 256 | 1.6 | 1.6 | 0.00 | 0.00 | 0.00 | 35 | |
| 20260503171154 | 23 | 264 | 1.6 | 1.6 | 0.00 | 0.00 | 0.00 | 35 | |
| 20260503170154 | 24 | 233 | 3.2 | 3.2 | 0.00 | 0.00 | 0.00 | 35 | |
| 20260503160113 | 27 | 249 | 6.4 | 11.3 | 0.00 | 0.00 | 0.00 | 30 | |
| 20260503151013 | 27 | 214 | 11.3 | 14.5 | 0.00 | 0.00 | 0.00 | 26 | |
| 20260503130913 | 27 | 254 | 12.9 | 14.5 | 0.00 | 0.00 | 0.00 | 26 | |
| 20260503110653 | 26 | 241 | 11.3 | 16.1 | 0.00 | 0.00 | 0.00 | 30 |